Home > Weather > Fullerton > Past weeks

Flag for USA Past Weather in Fullerton, California, USA — Yesterday and Last 2 Weeks

Now
73 °F

Sunny.


Feels Like: 75 °F
Forecast: 67 / 89 °F
Wind: 3 mph from West

Location: Fullerton Municipal Airport

Current Time: Jun 29, 2016 at 9:25:32 AM

Latest Report: Jun 29, 2016 at 8:53 AM


Visibility: 9 mi

Pressure: 29.91 "Hg

Humidity: 71%

Dew Point: 63 °F

Location of FullertonLocation

Past Weather in Fullerton — Graph

°F

Fullerton Temperature Yesterday

Maximum temperature yesterday: 89 °F (at 2:53 PM)
Minimum temperature yesterday: 68 °F (at 5:53 AM)
Average temperature yesterday: 77 °F

High & Low Weather Summary for the Past Weeks

 TemperatureHumidityPressure
High108 °F (Jun 20, 1:53 PM)94% (Jun 22, 3:53 AM)30.03 "Hg (Jun 22, 3:53 AM)
Low59 °F (Jun 16, 4:53 AM)6% (Jun 20, 5:53 PM)29.79 "Hg (Jun 20, 5:53 PM)
Average75 °F55%29.91 "Hg
* Reported Jun 14 7:53 AM — Jun 29 7:53 AM, Fullerton, Weather by CustomWeather, © 2016

Note: Actual official high and low records may vary slightly from our data, if they occured in-between our weather recording intervals... More about our weather records

Advertising

Fullerton Weather History for the Previous 24 Hours

Scroll right to see more
 ConditionsComfort  
Time TempWeatherWind HumidityBarometerVisibility
7:53 AM
Wed, Jun 29
71 °FScattered clouds.3 mph76%29.90 "Hg7 mi
6:53 AM69 °FOvercast.No wind81%29.90 "Hg6 mi
5:53 AM68 °FLow clouds.No wind84%29.90 "Hg7 mi
4:53 AM68 °FLow clouds.3 mph84%29.90 "Hg8 mi
3:53 AM68 °FLow clouds.No wind84%29.89 "Hg8 mi
2:53 AM69 °FLow clouds.3 mph84%29.89 "Hg6 mi
1:53 AM69 °FPassing clouds.5 mph84%29.89 "Hg7 mi
12:53 AM70 °FClear.3 mph81%29.90 "Hg8 mi
11:53 PM
Tue, Jun 28
71 °FClear.No wind76%29.90 "Hg10 mi
10:53 PM72 °FClear.No wind71%29.90 "Hg10 mi
9:53 PM73 °FClear.No wind69%29.90 "Hg10 mi
8:53 PM76 °FSunny.No wind60%29.88 "Hg10 mi
7:53 PM78 °FSunny.5 mph54%29.87 "Hg10 mi
6:53 PM83 °FSunny.3 mph48%29.86 "Hg10 mi
5:53 PM86 °FSunny.8 mph42%29.86 "Hg10 mi
4:53 PM87 °FSunny.8 mph45%29.87 "Hg10 mi
3:53 PM87 °FSunny.9 mph46%29.88 "Hg10 mi
2:53 PM89 °FSunny.9 mph43%29.89 "Hg10 mi
1:53 PM88 °FSunny.9 mph45%29.91 "Hg10 mi
12:53 PM84 °FSunny.6 mph51%29.93 "Hg10 mi
11:53 AM82 °FSunny.7 mph55%29.94 "Hg10 mi
10:53 AM83 °FSunny.7 mph53%29.94 "Hg9 mi
9:53 AM79 °FSunny.3 mph60%29.94 "Hg7 mi
Weather by CustomWeather, © 2016

See weather overviewHow to use our weather pages